Starlink 32158

operational
NORAD ID: 60267 Int'l Des: 2024-131 Owner: SPXS Country: US Constellation: starlink
LEOCIRCULAR

About Starlink 32158

Description loading...

Live Position

Loading 3D Globe...

Upcoming Passes

Altitude History

Altitude vs Time

uPlot chart will show altitude changes over time

Two-Line Element Set

1 60267U 24131N 25352.52179673 -.00000433 00000-0 -25162-5 0 9992
2 60267 53.1604 69.2898 0001000 95.7261 264.3854 15.30190121 79196
Epoch: Dec 18, 2025 • Age: 19 hours

Current Status

Altitude 481.1 km
Velocity 7.63 km/s
Sub-Earth Point 53.31°N, 47.7°W
Launch Date Jul 27, 2024
Age 1.3 years
Type internet

Technical Details

Classification Payload
Mass 730.00 kg
Dry Mass 700.00 kg
Total Mass 730.00 kg
Length 0.30 m
Diameter 4.10 m
Span 29.00 m
Shape Box + pan
Manufacturer SPXS
Bus Type Starlink V2M
Phase Status In Orbit
Owner/State SPXS/US

Large Constellations

Loading constellations...